Location: Terra Rouge Observatory
(46.0000°N, 62.7500°W)
Time: 04:01:26
(UTC-03:00)

Amateur Radio Satellites - All Passes

Search period start: 30 July 2014 03:31
Search period end: 31 July 2014 03:31
Location: Terra Rouge Observatory, 46.0000°N, 62.7500°W

Satellite Date Start Highest point End Downlink Frequencies (MHz)
Time Altitude Azimuth
PCSat 30 Jul 03:36:26 03:39:48 16° 328° (NNW) 03:43:10 145.825 MHz
Oscar 16 30 Jul 03:45:25 03:50:12 39° 293° (WNW) 03:54:57 437.025 USB, Beacon 2401.1428
OPAL 30 Jul 03:47:49 03:52:37 54° 68° (ENE) 03:57:28 ?
AO-40 30 Jul 03:58:22 04:59:36 13° 229° (SW) 06:26:47 Beacon 2401.320
ISS 30 Jul 03:58:57 04:02:05 35° 12° (NNE) 04:05:14 145.800 FM
ITAMSAT 1 30 Jul 04:08:15 04:13:17 52° 290° (WNW) 04:18:17 435.822 SSB
Oscar 10/S400 30 Jul 04:09:22 05:14:07 47° 215° (SW) 11:20:19 145.825 - 145.975 CW/USB, Beacon 145.810 USB
Uribyol 2 30 Jul 04:27:43 04:32:22 35° 294° (WNW) 04:36:59 436.500 FM
AO-27 30 Jul 04:28:00 04:32:42 36° 294° (WNW) 04:37:23 436.795 MHz FM
TMSAT-1 30 Jul 04:30:46 04:36:06 84° 104° (ESE) 04:41:24 436.925 FM
MaSat-1 30 Jul 04:33:29 04:35:22 12° 33° (NNE) 04:37:14 437.345 MHz
AO-7 30 Jul 04:42:31 04:49:44 31° 95° (E) 04:56:51 29.400 - 29.500 MHz
JAS-1B 30 Jul 04:42:49 04:52:13 66° 292° (WNW) 05:00:19 435.800 - 435.900 CW/SSB
KITSAT 1 30 Jul 04:54:39 04:58:54 15° 99° (E) 05:03:09 435.175 FM
Gurwin Techsat 1B 30 Jul 04:56:05 05:01:10 46° 291° (WNW) 05:06:12 435.225 FM
Oscar 19 30 Jul 04:58:30 05:00:08 12° 306° (NW) 05:01:47 437.125 CW, 437.150 USB
AO-Echo 30 Jul 05:05:17 05:08:30 17° 302° (WNW) 05:11:40 ?
Uosat F 30 Jul 05:23:04 05:28:03 59° 101° (ESE) 05:32:59 435.120 FM
OPAL 30 Jul 05:28:14 05:31:51 20° 266° (W) 05:35:30 ?
ISS 30 Jul 05:35:39 05:39:00 70° 211° (SSW) 05:42:21 145.800 FM
MaSat-1 30 Jul 06:08:57 06:14:04 45° 54° (NE) 06:18:59 437.345 MHz
TMSAT-1 30 Jul 06:12:10 06:15:21 16° 303° (WNW) 06:18:31 436.925 FM
STRAND 1 30 Jul 06:13:01 06:17:38 34° 66° (ENE) 06:22:15 ?
JAS-1B 30 Jul 06:34:37 06:40:48 20° 316° (NW) 06:46:36 435.800 - 435.900 CW/SSB
AO-7 30 Jul 06:34:49 06:43:04 66° 295° (WNW) 06:51:14 29.400 - 29.500 MHz
KITSAT 1 30 Jul 06:44:50 06:52:53 72° 119° (ESE) 07:00:57 435.175 FM
Uosat F 30 Jul 07:02:47 07:06:25 21° 300° (WNW) 07:10:03 435.120 FM
Hamsat 30 Jul 07:02:49 07:07:04 55° 100° (E) 07:11:19 145.90 MHz
JAS-2 30 Jul 07:04:36 07:10:17 43° 96° (E) 07:15:23 435.800 - 435.900 CW/SSB, 435.910 FM
PCSat 30 Jul 07:10:47 07:12:04 11° 22° (NNE) 07:13:22 145.825 MHz
ISS 30 Jul 07:14:01 07:15:11 11° 228° (SW) 07:16:20 145.800 FM
Saudisat 1A 30 Jul 07:42:04 07:46:16 44° 119° (ESE) 07:50:29 436.775 MHz
MaSat-1 30 Jul 07:46:39 07:51:14 30° 254° (WSW) 07:55:35 437.345 MHz
STRAND 1 30 Jul 07:52:09 07:56:48 34° 264° (W) 08:01:28 ?
SO-67 30 Jul 08:16:10 08:19:38 57° 100° (E) 08:23:03 435.3500 MHz FM
Sapphire 30 Jul 08:19:21 08:23:27 21° 37° (NE) 08:27:32 437.095 MHz 1200 baud AX-25 AFSK
AO-7 30 Jul 08:29:07 08:34:21 19° 317° (NW) 08:39:34 29.400 - 29.500 MHz
Hamsat 30 Jul 08:39:52 08:42:38 17° 297° (WNW) 08:45:25 145.90 MHz
KITSAT 1 30 Jul 08:41:35 08:48:56 37° 322° (NW) 08:56:20 435.175 FM
JAS-2 30 Jul 08:50:00 08:55:12 31° 299° (WNW) 08:59:57 435.800 - 435.900 CW/SSB, 435.910 FM
PCSat 30 Jul 08:52:19 08:57:15 34° 46° (NE) 09:02:09 145.825 MHz
Saudisat 1A 30 Jul 09:22:09 09:26:00 29° 319° (NW) 09:29:53 436.775 MHz
UKube-1 30 Jul 09:24:50 09:26:56 13° 90° (E) 09:29:02 145.840 MHz, 145.915 MHz
HO-68 30 Jul 09:48:21 09:55:04 42° 98° (E) 10:01:44 435.675 MHz FM
SO-67 30 Jul 09:51:13 09:52:14 11° 297° (WNW) 09:53:14 435.3500 MHz FM
Sapphire 30 Jul 10:02:09 10:07:37 88° 239° (WSW) 10:13:02 437.095 MHz 1200 baud AX-25 AFSK
Oscar 11 30 Jul 10:07:36 10:10:52 21° 93° (E) 10:14:08 145.825 FM, Beacon 2401.500 USB
FUNcube-1 30 Jul 10:33:24 10:35:38 14° 90° (E) 10:37:53 145.950 - 145.970 MHz USB
PCSat 30 Jul 10:35:39 10:40:50 46° 246° (WSW) 10:45:58 145.825 MHz
KITSAT 1 30 Jul 10:41:42 10:47:06 19° 350° (N) 10:52:29 435.175 FM
UKube-1 30 Jul 10:59:16 11:03:36 66° 287° (WNW) 11:07:54 145.840 MHz, 145.915 MHz
HO-68 30 Jul 11:36:08 11:42:48 44° 297° (WNW) 11:49:27 435.675 MHz FM
Oscar 11 30 Jul 11:43:09 11:47:15 42° 290° (WNW) 11:51:20 145.825 FM, Beacon 2401.500 USB
Sapphire 30 Jul 11:47:35 11:50:13 14° 257° (WSW) 11:52:50 437.095 MHz 1200 baud AX-25 AFSK
JAS-1B 30 Jul 11:55:15 11:58:46 13° 35° (NE) 12:02:18 435.800 - 435.900 CW/SSB
FUNcube-1 30 Jul 12:08:19 12:12:25 57° 287° (WNW) 12:16:33 145.950 - 145.970 MHz USB
Uribyol 2 30 Jul 12:33:46 12:35:03 11° 53° (NE) 12:36:20 436.500 FM
AO-27 30 Jul 12:34:25 12:35:35 11° 53° (NE) 12:36:45 436.795 MHz FM
KITSAT 1 30 Jul 12:39:54 12:45:59 22° 21° (NNE) 12:52:02 435.175 FM
SO-50 30 Jul 12:41:44 12:46:03 51° 120° (ESE) 12:50:29 436.795 FM
Oscar 19 30 Jul 12:57:35 13:02:02 31° 65° (ENE) 13:06:30 437.125 CW, 437.150 USB
AO-Echo 30 Jul 13:03:32 13:07:13 19° 60° (ENE) 13:10:53 ?
Oscar 16 30 Jul 13:25:33 13:30:32 56° 71° (ENE) 13:35:34 437.025 USB, Beacon 2401.1428
RS-15 30 Jul 13:26:52 13:37:29 54° 114° (ESE) 13:47:55 29.354 - 29.394 USB, Beacon 29.352 USB
HO-68 30 Jul 13:27:23 13:28:44 11° 319° (NW) 13:30:04 435.675 MHz FM
JAS-1B 30 Jul 13:38:07 13:46:27 39° 58° (ENE) 13:55:17 435.800 - 435.900 CW/SSB
ITAMSAT 1 30 Jul 13:49:38 13:54:32 43° 68° (ENE) 13:59:27 435.822 SSB
AO-7 30 Jul 13:56:35 14:00:55 15° 39° (NE) 14:05:15 29.400 - 29.500 MHz
Uribyol 2 30 Jul 14:08:25 14:13:34 66° 72° (ENE) 14:18:43 436.500 FM
AO-27 30 Jul 14:08:57 14:14:07 64° 72° (ENE) 14:19:17 436.795 MHz FM
TMSAT-1 30 Jul 14:15:40 14:19:54 25° 62° (ENE) 14:24:09 436.925 FM
SO-50 30 Jul 14:23:02 14:26:52 27° 321° (NW) 14:30:48 436.795 FM
Saudisat 1A 30 Jul 14:27:43 14:30:29 16° 31° (NNE) 14:33:14 436.775 MHz
UOSAT-12 30 Jul 14:34:12 14:38:40 51° 120° (ESE) 14:43:14 437.025 FM, 437.400 FM
KITSAT 1 30 Jul 14:35:27 14:43:24 55° 47° (NE) 14:51:16 435.175 FM
Oscar 19 30 Jul 14:36:33 14:41:17 38° 263° (W) 14:46:03 437.125 CW, 437.150 USB
Gurwin Techsat 1B 30 Jul 14:39:55 14:45:03 51° 70° (ENE) 14:50:12 435.225 FM
AO-Echo 30 Jul 14:40:08 14:45:26 71° 258° (WSW) 14:50:46 ?
Uosat F 30 Jul 15:02:34 15:05:38 16° 58° (ENE) 15:08:43 435.120 FM
Oscar 16 30 Jul 15:06:29 15:10:15 21° 268° (W) 15:14:03 437.025 USB, Beacon 2401.1428
JAS-1B 30 Jul 15:27:18 15:36:19 67° 259° (W) 15:46:14 435.800 - 435.900 CW/SSB
ITAMSAT 1 30 Jul 15:29:47 15:34:11 27° 266° (W) 15:38:37 435.822 SSB
RS-15 30 Jul 15:39:08 15:49:54 55° 319° (NW) 16:00:37 29.354 - 29.394 USB, Beacon 29.352 USB
AO-7 30 Jul 15:43:52 15:51:53 54° 62° (ENE) 15:59:56 29.400 - 29.500 MHz
Uribyol 2 30 Jul 15:50:04 15:53:31 18° 270° (W) 15:56:58 436.500 FM
AO-27 30 Jul 15:50:32 15:54:05 18° 269° (W) 15:57:39 436.795 MHz FM
TMSAT-1 30 Jul 15:54:22 15:59:31 51° 260° (W) 16:04:42 436.925 FM
OPAL 30 Jul 15:57:47 15:59:03 11° 89° (E) 16:00:18 ?
Saudisat 1A 30 Jul 16:06:24 16:10:50 75° 52° (NE) 16:15:14 436.775 MHz
UOSAT-12 30 Jul 16:15:04 16:19:05 28° 320° (NW) 16:23:10 437.025 FM, 437.400 FM
Gurwin Techsat 1B 30 Jul 16:21:06 16:25:18 24° 268° (W) 16:29:32 435.225 FM
KITSAT 1 30 Jul 16:31:12 16:38:37 42° 249° (WSW) 16:46:01 435.175 FM
Uosat F 30 Jul 16:38:46 16:43:49 78° 256° (WSW) 16:48:54 435.120 FM
JAS-2 30 Jul 17:17:55 17:24:30 33° 62° (ENE) 17:30:38 435.800 - 435.900 CW/SSB, 435.910 FM
JAS-1B 30 Jul 17:23:30 17:28:44 16° 281° (WNW) 17:34:14 435.800 - 435.900 CW/SSB
OPAL 30 Jul 17:33:34 17:38:41 82° 107° (ESE) 17:43:49 ?
AO-7 30 Jul 17:37:10 17:44:53 40° 262° (W) 17:52:39 29.400 - 29.500 MHz
Saudisat 1A 30 Jul 17:47:30 17:49:51 14° 250° (WSW) 17:52:12 436.775 MHz
RS-15 30 Jul 17:56:06 18:05:19 30° 351° (N) 18:14:37 29.354 - 29.394 USB, Beacon 29.352 USB
Hamsat 30 Jul 17:58:34 18:02:37 52° 72° (ENE) 18:06:44 145.90 MHz
SO-67 30 Jul 18:51:57 18:54:58 28° 70° (ENE) 18:57:59 435.3500 MHz FM
JAS-2 30 Jul 19:01:30 19:09:10 62° 259° (W) 19:16:18 435.800 - 435.900 CW/SSB, 435.910 FM
OPAL 30 Jul 19:13:51 19:16:57 17° 305° (NW) 19:20:04 ?
SO-50 30 Jul 19:30:58 19:34:27 20° 34° (NE) 19:37:58 436.795 FM
Hamsat 30 Jul 19:36:27 19:38:56 15° 270° (W) 19:41:27 145.90 MHz
STRAND 1 30 Jul 19:59:34 20:04:41 68° 103° (ESE) 20:09:45 ?
RS-15 30 Jul 20:11:49 20:21:45 37° 26° (NNE) 20:31:51 29.354 - 29.394 USB, Beacon 29.352 USB
HO-68 30 Jul 20:19:31 20:26:07 42° 62° (ENE) 20:32:43 435.675 MHz FM
UKube-1 30 Jul 20:22:39 20:25:34 18° 61° (ENE) 20:28:29 145.840 MHz, 145.915 MHz
SO-67 30 Jul 20:25:31 20:28:05 19° 267° (W) 20:30:39 435.3500 MHz FM
JAS-2 30 Jul 20:52:47 20:55:22 12° 277° (W) 20:57:54 435.800 - 435.900 CW/SSB, 435.910 FM
Oscar 11 30 Jul 21:05:16 21:08:38 23° 65° (ENE) 21:12:01 145.825 FM, Beacon 2401.500 USB
SO-50 30 Jul 21:10:53 21:15:39 88° 234° (SW) 21:20:28 436.795 FM
UOSAT-12 30 Jul 21:21:59 21:25:26 19° 33° (NNE) 21:28:51 437.025 FM, 437.400 FM
FUNcube-1 30 Jul 21:32:31 21:35:17 17° 63° (ENE) 21:38:02 145.950 - 145.970 MHz USB
MaSat-1 30 Jul 21:39:12 21:43:25 85° 117° (ESE) 21:48:20 437.345 MHz
STRAND 1 30 Jul 21:39:52 21:43:22 19° 301° (WNW) 21:46:50 ?
UKube-1 30 Jul 21:57:05 22:01:23 55° 259° (W) 22:05:42 145.840 MHz, 145.915 MHz
HO-68 30 Jul 22:06:58 22:13:46 45° 261° (W) 22:20:36 435.675 MHz FM
RS-15 30 Jul 22:24:43 22:35:48 85° 54° (NE) 22:47:15 29.354 - 29.394 USB, Beacon 29.352 USB
Oscar 11 30 Jul 22:40:36 22:44:37 38° 262° (W) 22:48:40 145.825 FM, Beacon 2401.500 USB
SO-50 30 Jul 22:53:28 22:55:32 13° 252° (WSW) 22:57:36 436.795 FM
UOSAT-12 30 Jul 23:01:30 23:06:16 88° 54° (NE) 23:10:58 437.025 FM, 437.400 FM
FUNcube-1 30 Jul 23:07:08 23:11:20 52° 260° (W) 23:15:29 145.950 - 145.970 MHz USB
MaSat-1 30 Jul 23:18:27 23:21:33 18° 320° (NW) 23:24:52 437.345 MHz
PCSat 30 Jul 23:38:52 23:42:00 16° 104° (ESE) 23:45:09 145.825 MHz
ISS 30 Jul 23:55:42 23:59:00 61° 147° (SSE) 00:02:19 145.800 FM
RS-15 31 Jul 00:38:07 00:46:54 29° 256° (WSW) 00:55:59 29.354 - 29.394 USB, Beacon 29.352 USB
UOSAT-12 31 Jul 00:43:34 00:45:43 13° 252° (WSW) 00:47:51 437.025 FM, 437.400 FM
Sapphire 31 Jul 00:46:18 00:51:31 52° 116° (ESE) 00:56:47 437.095 MHz 1200 baud AX-25 AFSK
PCSat 31 Jul 01:19:17 01:24:42 83° 302° (WNW) 01:30:10 145.825 MHz
ISS 31 Jul 01:32:43 01:35:52 37° 347° (NNW) 01:39:02 145.800 FM
Oscar 16 31 Jul 01:35:55 01:39:06 16° 89° (E) 01:42:16 437.025 USB, Beacon 2401.1428
ITAMSAT 1 31 Jul 02:02:04 02:04:01 12° 87° (E) 02:05:58 435.822 SSB
Uribyol 2 31 Jul 02:19:38 02:23:16 19° 91° (E) 02:26:53 436.500 FM
AO-27 31 Jul 02:20:31 02:24:07 19° 91° (E) 02:27:42 436.795 MHz FM
Sapphire 31 Jul 02:30:27 02:35:13 31° 316° (NW) 02:40:00 437.095 MHz 1200 baud AX-25 AFSK
Oscar 19 31 Jul 02:45:01 02:50:10 64° 102° (ESE) 02:55:18 437.125 CW, 437.150 USB
AO-Echo 31 Jul 02:45:34 02:50:05 32° 95° (E) 02:54:26 ?
Gurwin Techsat 1B 31 Jul 02:54:43 02:58:05 17° 89° (E) 03:01:26 435.225 FM
PCSat 31 Jul 03:05:04 03:08:57 20° 324° (NW) 03:12:52 145.825 MHz
ISS 31 Jul 03:10:04 03:13:07 31° 7° (N) 03:16:11 145.800 FM
JAS-1B 31 Jul 03:11:38 03:20:28 44° 93° (E) 03:28:02 435.800 - 435.900 CW/SSB
OPAL 31 Jul 03:13:30 03:17:39 28° 61° (ENE) 03:21:49 ?
Oscar 16 31 Jul 03:13:49 03:18:59 71° 287° (WNW) 03:24:07 437.025 USB, Beacon 2401.1428
